DW1297 Weather Reports


time (UTC)temp
F
wind
direction
speed
knots
gust
knots
rain 1hr
in
rain 24hr
in
rain mn
in
humidity
%
barometer
mb
20260507210013 87 184 0.0 7.0 0.00 0.00 0.00 44 1016.2
20260507204510 85 273 0.0 3.5 0.00 0.00 0.00 45 1016.5
20260507201506 84 260 0.0 7.0 0.00 0.00 0.00 44 1017.0
20260507200009 84 219 0.0 7.8 0.00 0.00 0.00 46 1017.2
20260507194505 83 211 0.0 7.0 0.00 0.00 0.00 46 1017.3
20260507193005 82 339 0.0 4.3 0.00 0.00 0.00 46 1017.6
20260507191505 82 217 0.0 0.9 0.00 0.00 0.00 46 1017.7
20260507190008 81 318 0.0 3.5 0.00 0.00 0.00 48 1017.9
20260507184512 81 177 0.0 4.3 0.00 0.00 0.00 48 1018.1
20260507183012 80 197 0.0 7.0 0.00 0.00 0.00 49 1018.2
20260507181512 79 234 0.0 0.0 0.00 0.00 0.00 50 1018.2
20260507180009 78 196 0.0 4.3 0.00 0.00 0.00 51 1018.4
20260507173005 77 282 0.0 3.5 0.00 0.00 0.00 53 1018.6
20260507171517 76 139 0.0 3.5 0.00 0.00 0.00 56 1018.6
20260507170005 74 152 0.0 1.7 0.00 0.00 0.00 57 1018.8
20260507164516 73 142 0.0 0.9 0.00 0.00 0.00 60 1018.8
20260507161526 69 136 0.0 0.0 0.00 0.00 0.00 66 1018.9
20260507160013 67 130 0.0 0.0 0.00 0.00 0.00 70 1018.8
20260507154518 65 126 0.0 0.0 0.00 0.00 0.00 76 1018.8
20260507153009 62 126 0.0 0.0 0.00 0.00 0.00 81 1018.9
20260507151512 60 65 0.0 0.0 0.00 0.00 0.00 86 1019.0
20260507144522 57 65 0.0 0.0 0.00 0.00 0.00 89 1019.0
20260507143020 56 65 0.0 0.0 0.00 0.00 0.00 89 1018.9
20260507141516 55 65 0.0 0.0 0.00 0.00 0.00 87 1018.7
20260507140023 55 65 0.0 0.0 0.00 0.00 0.00 86 1018.6
20260507134508 54 65 0.0 0.0 0.00 0.00 0.00 85 1018.6
20260507133026 54 205 0.0 0.0 0.00 0.00 0.00 85 1018.5
20260507130020 55 205 0.0 0.0 0.00 0.00 0.00 84 1018.2
20260507124521 55 205 0.0 0.0 0.00 0.00 0.00 83 1018.1
20260507123016 55 205 0.0 0.0 0.00 0.00 0.00 83 1018.2
20260507121515 56 205 0.0 0.0 0.00 0.00 0.00 83 1018.2
20260507120032 56 205 0.0 0.0 0.00 0.00 0.00 83 1018.1
20260507114511 56 205 0.0 0.0 0.00 0.00 0.00 82 1018.1
20260507113024 56 205 0.0 0.0 0.00 0.00 0.00 82 1018.1
20260507111515 57 205 0.0 0.0 0.00 0.00 0.00 82 1018.2
20260507110024 57 205 0.0 0.0 0.00 0.00 0.00 81 1018.3
20260507104520 57 205 0.0 0.0 0.00 0.00 0.00 81 1018.2
20260507103023 57 205 0.0 0.0 0.00 0.00 0.00 80 1018.3
20260507101521 57 205 0.0 0.0 0.00 0.00 0.00 80 1018.3
20260507100023 58 205 0.0 0.0 0.00 0.00 0.00 80 1018.3
20260507094522 58 205 0.0 0.0 0.00 0.00 0.00 79 1018.3
20260507093025 59 205 0.0 0.0 0.00 0.00 0.00 79 1018.3
20260507091518 59 205 0.0 0.0 0.00 0.00 0.00 78 1018.4
20260507090023 59 205 0.0 0.0 0.00 0.00 0.00 78 1018.5
20260507084526 60 205 0.0 0.0 0.00 0.00 0.00 78 1018.5
20260507083023 60 205 0.0 0.0 0.00 0.00 0.00 77 1018.6
20260507081534 60 205 0.0 0.0 0.00 0.00 0.00 76 1018.6
20260507080019 61 205 0.0 0.0 0.00 0.00 0.00 76 1018.5
20260507074536 61 205 0.0 0.0 0.00 0.00 0.00 74 1018.5
20260507073023 62 205 0.0 0.0 0.00 0.00 0.00 73 1018.6
20260507071526 62 205 0.0 0.0 0.00 0.00 0.00 74 1018.6
20260507070010 63 205 0.0 0.0 0.00 0.00 0.00 73 1018.6
20260507064507 63 205 0.0 0.0 0.00 0.00 0.00 72 1018.6
20260507063007 63 205 0.0 0.0 0.00 0.00 0.00 71 1018.6
20260507061508 64 205 0.0 0.0 0.00 0.00 0.00 70 1018.6
20260507060020 64 205 0.0 0.0 0.00 0.00 0.00 69 1018.5
20260507054521 65 205 0.0 0.0 0.00 0.00 0.00 68 1018.4
20260507053014 65 205 0.0 0.0 0.00 0.00 0.00 67 1018.4
20260507051515 66 205 0.0 0.0 0.00 0.00 0.00 66 1018.5
20260507050024 67 205 0.0 0.0 0.00 0.00 0.00 65 1018.6
20260507044510 68 205 0.0 0.0 0.00 0.00 0.00 63 1018.5
20260507043023 68 205 0.0 0.0 0.00 0.00 0.00 63 1018.4
20260507041522 69 205 0.0 0.0 0.00 0.00 0.00 61 1018.2
20260507034520 71 205 0.0 0.0 0.00 0.00 0.00 57 1018.0
20260507031510 74 205 0.0 0.0 0.00 0.00 0.00 54 1017.7
20260507030008 74 206 0.0 0.0 0.00 0.00 0.00 53 1017.5
20260507024519 76 217 0.0 0.0 0.00 0.00 0.00 51 1017.5
20260507023025 76 217 0.0 0.0 0.00 0.00 0.00 50 1017.4
20260507021522 78 213 0.0 0.0 0.00 0.00 0.00 48 1017.4
20260507020020 79 260 0.0 6.1 0.00 0.00 0.00 47 1017.3
20260507014536 80 254 0.0 0.0 0.00 0.00 0.00 46 1017.3
20260507013012 80 261 0.0 3.5 0.00 0.00 0.00 46 1017.4
20260507011528 80 211 0.0 0.0 0.00 0.00 0.00 45 1017.3
20260507010012 80 360 0.0 4.3 0.00 0.00 0.00 45 1017.3
20260507004524 80 259 0.0 2.6 0.00 0.00 0.00 45 1017.3
20260507001504 81 185 0.0 3.5 0.00 0.00 0.00 44 1017.2
20260507000004 81 184 0.0 6.1 0.00 0.00 0.00 43 1017.2
20260506234504 82 200 0.0 5.2 0.00 0.00 0.00 43 1017.2
20260506233016 81 210 0.9 5.2 0.00 0.00 0.00 43 1017.2
20260506231503 80 333 0.0 0.0 0.00 0.00 0.00 43 1017.3
20260506230004 80 213 0.9 5.2 0.00 0.00 0.00 44 1017.5
20260506224503 80 275 0.9 6.1 0.00 0.00 0.00 45 1017.7
20260506221520 79 194 0.0 7.8 0.00 0.00 0.00 43 1017.9
20260506220015 79 184 0.0 0.0 0.00 0.00 0.00 44 1018.2
20260506214506 79 185 0.9 7.8 0.00 0.00 0.00 44 1018.5
20260506213008 79 286 0.0 9.6 0.00 0.00 0.00 44 1018.6